WB9FQS Weather Reports


time (UTC)temp
C
wind
direction
speed
KPH
gust
KPH
rain 1hr
cm
rain 24hr
cm
rain mn
cm
humidity
%
barometer
mb
20260505083004 11 54 0.0 1.6 0.00 1.12 0.00 11 1004.3
20260505081606 11 98 0.0 0.0 0.00 1.12 0.00 2 1003.9
20260505080103 11 105 0.0 0.0 0.00 1.12 0.00 2 1003.6
20260505074551 12 105 0.0 0.0 0.00 1.12 0.00 1 1002.7
20260505073050 12 82 0.0 0.0 0.00 1.12 0.00 1 1002.9
20260505071541 12 81 0.0 0.0 0.00 1.12 0.00 3 1002.7
20260505070037 12 81 0.0 0.0 0.00 1.12 0.00 5 1002.5
20260505064541 12 81 0.0 0.0 0.00 1.12 0.00 7 1002.2
20260505063028 12 81 0.0 0.0 0.00 1.12 0.00 9 1002.0
20260505061526 12 81 0.0 0.0 0.00 1.12 0.00 15 1001.8
20260505060025 12 74 0.0 1.6 0.00 1.12 0.00 19 1001.3
20260505054540 12 75 0.0 0.0 0.00 1.12 0.00 26 1001.7
20260505053017 13 74 0.0 3.2 0.00 1.12 0.00 32 1001.5
20260505051514 13 73 0.0 0.0 0.00 1.12 0.00 27 1001.5
20260505041607 12 32 0.0 1.6 0.00 1.12 1.12 9 1001.4
20260505034606 13 106 0.0 0.0 0.08 1.12 1.12 20 1000.1
20260505033044 13 106 0.0 1.6 0.13 1.12 1.12 29 1000.0
20260505031539 13 89 0.0 1.6 0.13 1.12 1.12 29 1000.4
20260505030045 13 118 0.0 8.0 0.13 1.12 1.12 37 1000.7
20260505024530 13 50 0.0 8.0 0.08 1.04 1.04 41 1001.3
20260505023030 13 293 1.6 11.3 0.08 0.99 0.99 50 1000.6
20260505021523 14 300 0.0 6.4 0.13 0.99 0.99 53 1000.6
20260505020019 14 35 0.0 4.8 0.25 0.99 0.99 27 1000.4
20260505014519 14 127 0.0 4.8 0.23 0.97 0.97 10 1000.0
20260505013017 14 55 0.0 1.6 0.18 0.91 0.91 19 1000.6
20260505011507 14 74 0.0 1.6 0.13 0.86 0.86 39 1000.2
20260505010007 15 137 0.0 4.8 0.00 0.71 0.71 40 1000.2
20260505004520 15 16 0.0 3.2 0.38 0.71 0.71 26 999.4
20260505003004 15 141 0.0 1.6 0.71 0.71 0.71 42 998.8
20260505001504 15 154 0.0 9.7 0.71 0.71 0.71 52 997.9
20260505000003 15 127 0.0 3.2 0.71 0.71 0.71 64 998.4
20260504234600 17 313 3.2 8.0 0.36 0.36 0.36 80 999.8
20260504233108 22 32 0.0 6.4 0.00 0.00 0.00 61 998.8
20260504231622 22 113 3.2 20.9 0.00 0.00 0.00 54 998.3
20260504230056 22 49 1.6 8.0 0.00 0.00 0.00 56 998.4
20260504224600 22 89 0.0 11.3 0.00 0.00 0.00 57 998.4
20260504223055 23 89 0.0 11.3 0.00 0.00 0.00 56 998.3
20260504221636 23 238 3.2 14.5 0.00 0.00 0.00 56 998.3
20260504220054 23 50 1.6 12.9 0.00 0.00 0.00 57 998.6
20260504214552 23 293 3.2 14.5 0.00 0.00 0.00 55 998.8
20260504213054 24 122 0.0 8.0 0.00 0.00 0.00 51 999.1
20260504211549 25 123 0.0 16.1 0.00 0.00 0.00 46 999.1
20260504210050 25 177 1.6 11.3 0.00 0.00 0.00 45 999.1
20260504204546 25 103 0.0 11.3 0.00 0.00 0.00 47 999.1
20260504203045 25 347 1.6 6.4 0.00 0.00 0.00 44 999.3
20260504201545 25 101 3.2 9.7 0.00 0.00 0.00 44 999.3
20260504200043 26 62 3.2 11.3 0.00 0.00 0.00 41 999.3
20260504194549 25 47 0.0 8.0 0.00 0.00 0.00 42 999.5
20260504193046 25 139 0.0 12.9 0.00 0.00 0.00 43 999.6
20260504191604 25 82 0.0 8.0 0.00 0.00 0.00 43 999.8
20260504190038 25 51 0.0 9.7 0.00 0.00 0.00 44 1000.0
20260504184542 24 137 0.0 6.4 0.00 0.00 0.00 47 1000.3
20260504183031 24 11 0.0 14.5 0.00 0.00 0.00 48 1000.4
20260504181526 23 101 0.0 17.7 0.00 0.00 0.00 53 1000.7
20260504180029 23 115 1.6 9.7 0.00 0.00 0.00 52 1000.8
20260504174523 23 123 0.0 12.9 0.00 0.00 0.00 50 1000.9
20260504173019 23 288 3.2 12.9 0.00 0.00 0.00 53 1001.2
20260504171516 23 35 0.0 4.8 0.00 0.00 0.00 54 1001.3